1300492826727,16.3131
1300492886727,16.2974
1300492946727,16.2896
1300493006727,16.3431
1300493066727,16.2704
1300493126727,16.3092
1300493186727,16.3307
1300493246727,16.3336
1300493306727,16.3362
1300493366727,16.3567
1300493426727,16.3122
1300493486727,16.3326
1300493546727,16.2988
1300493606727,16.3605
1300493666727,16.3251
1300493726727,16.3523
1300493786727,16.2994
1300493846727,16.3897
1300493906727,16.3905
1300493966727,16.3466
1300494026727,16.3309
1300494086727,16.3991
1300494146727,16.3071
1300494206727,16.3582
1300494266727,16.3557
1300494326727,16.3602
1300494386727,16.3383
1300494446727,16.3944
1300494506727,16.3547
1300494566727,16.3412
1300494626727,16.3504
1300494686727,16.3947
1300494746727,16.3567
1300494806727,16.3351
1300494866727,16.3640
1300494926727,16.3542
1300494986727,16.3219
1300495046727,16.3601
1300495106727,16.3356
1300495166727,16.3666
1300495226727,16.3365
1300495286727,16.3350
1300495346727,16.3324
1300495406727,16.3343
1300495466727,16.3195
1300495526727,16.3273
1300495586727,16.3221
1300495646727,16.2984
1300495706727,16.3096
1300495766727,16.3171
1300495826727,16.3033
1300495886727,16.3167
1300495946727,16.2984
1300496006727,16.2816
1300496066727,16.3346
1300496126727,16.2801
1300496186727,16.3288
1300496246727,16.3216
1300496306727,16.3477
1300496366727,16.3078
1300496426740,16.3395
1300496486740,16.3764
1300496546740,16.3447
1300496606740,16.3581
1300496666740,16.3671
1300496726740,16.3747
1300496786740,16.3768
1300496846740,16.3588
1300496906740,16.3333
1300496966740,16.3460
1300497026740,16.3898
1300497086740,16.3144
1300497146740,16.3201
1300497206740,16.3668
1300497266740,16.3518
1300497326740,16.2842
1300497386740,16.3142
1300497446740,16.3065
1300497506740,16.2970
1300497566740,16.2963
1300497626740,16.3339
1300497686740,16.2986
1300497746740,16.3620
1300497806740,16.3114
1300497866740,16.3362
1300497926740,16.3107
1300497986740,16.2580
1300498046740,16.2681
1300498106740,16.3215
1300498166740,16.2824
1300498226740,16.2884
1300498286740,16.2738
1300498346740,16.2921
1300498406740,16.2637
1300498466740,16.2957
1300498526740,16.2714
1300498586740,16.2278
1300498646740,16.2762
1300498706740,16.2698
1300498766740,16.2641
1300498826740,16.2607
1300498886740,16.2533
1300498946740,16.2261
1300499006740,16.2388
1300499066740,16.2242
1300499126740,16.2717
1300499186740,16.2791
1300499246740,16.2649
1300499306740,16.2948
1300499366740,16.3260
1300499426740,16.3189
1300499486740,16.2882
1300499546740,16.2505
1300499606740,16.2329
1300499666740,16.3074
1300499726740,16.3187
1300499786740,16.3074
1300499846740,16.2933
1300499906740,16.2923
1300499966740,16.2574
1300500026752,16.3438
1300500086752,16.2875
1300500146752,16.2686
1300500206752,16.3144
1300500266752,16.2241
1300500326752,16.2266
1300500386752,16.2471
1300500446752,16.2888
1300500506752,16.2645
1300500566752,16.2833
1300500626752,16.2073
1300500686752,16.2709
1300500746752,16.2970
1300500806752,16.3038
1300500866752,16.2571
1300500926752,16.3109
1300500986752,16.2989
1300501046752,16.3278
1300501106752,16.3249
1300501166752,16.3374
1300501226752,16.3302
1300501286752,16.3401
1300501346752,16.2962
1300501406752,16.3508
1300501466752,16.3543
1300501526752,16.3110
1300501586752,16.3302
1300501646752,16.3129
1300501706752,16.3632
1300501766752,16.3060
1300501826752,16.3346
1300501886752,16.3226
1300501946752,16.2984
1300502006752,16.3048
1300502066752,16.3311
1300502126752,16.3442
1300502186752,16.3083
1300502246752,16.3055
1300502306752,16.3288
1300502366752,16.3412
1300502426752,16.3259
1300502486752,16.3369
1300502546752,16.3009
1300502606752,16.2768
1300502666752,16.2747
1300502726752,16.2770
1300502786752,16.3200
1300502846752,16.3178
1300502906752,16.2676
1300502966752,16.3395
1300503026752,16.3204
1300503086752,16.2700
1300503146752,16.3064
1300503206752,16.3164
1300503266752,16.2865
1300503326752,16.2659
1300503386752,16.3160
1300503446752,16.2425
1300503506752,16.2818
1300503566752,16.2579
1300503626765,16.2662
1300503686765,16.2818
1300503746765,16.2777
1300503806765,16.2672
1300503866765,16.2822
1300503926765,16.2903
1300503986765,16.2892
1300504046765,16.3156
1300504106765,16.3309
1300504166765,16.3123
1300504226765,16.3501
1300504286765,16.3049
1300504346765,16.3514
1300504406765,16.2964
1300504466765,16.3059
1300504526765,16.3240
1300504586765,16.2981
1300504646765,16.3475
1300504706765,16.3011
1300504766765,16.3547
1300504826765,16.2912
1300504886765,16.3070
1300504946765,16.3020
1300505006765,16.2873
1300505066765,16.3318
1300505126765,16.3162
1300505186765,16.3495
1300505246765,16.3318
1300505306765,16.3578
1300505366765,16.3581
1300505426765,16.3427
1300505486765,16.3793
1300505546765,16.3713
1300505606765,16.3934
1300505666765,16.3325
1300505726765,16.3908
1300505786765,16.3285
1300505846765,16.3400
1300505906765,16.2959
1300505966765,16.3234
1300506026765,16.3287
1300506086765,16.3386
1300506146765,16.3026
1300506206765,16.3154
1300506266765,16.3196
1300506326765,16.2701
1300506386765,16.3215
1300506446765,16.2943
1300506506765,16.3111
1300506566765,16.2943
1300506626765,16.2502
1300506686765,16.3334
1300506746765,16.3279
1300506806765,16.3074
1300506866765,16.2956
1300506926765,16.2642
1300506986765,16.2459
1300507046765,16.2794
1300507106765,16.3099
1300507166765,16.3186
1300507226778,16.3086
1300507286778,16.2812
1300507346778,16.3200
1300507406778,16.2804
1300507466778,16.2540
1300507526778,16.3299
1300507586778,16.3307
1300507646778,16.3088
1300507706778,16.3524
1300507766778,16.3051
1300507826778,16.3320
1300507886778,16.3175
1300507946778,16.2792
1300508006778,16.3096
1300508066778,16.3461
1300508126778,16.3309
1300508186778,16.3286
1300508246778,16.3436
1300508306778,16.2963
1300508366778,16.3700
1300508426778,16.3015
1300508486778,16.3545
1300508546778,16.2854
1300508606778,16.2977
1300508666778,16.3054
1300508726778,16.2663
1300508786778,16.2832
1300508846778,16.2869
1300508906778,16.2945
1300508966778,16.3000
1300509026778,16.3475
1300509086778,16.2971
1300509146778,16.3190
1300509206778,16.3378
1300509266778,16.3358
1300509326778,16.3202
1300509386778,16.2584
1300509446778,16.3357
1300509506778,16.2863
1300509566778,16.3086
1300509626778,16.2698
1300509686778,16.2705
1300509746778,16.3072
1300509806778,16.2481
1300509866778,16.2699
1300509926778,16.2706
1300509986778,16.2884
1300510046778,16.3303
1300510106778,16.2767
1300510166778,16.3183
1300510226778,16.2902
1300510286778,16.2757
1300510346778,16.2810
1300510406778,16.2644
1300510466778,16.2427
1300510526778,16.2591
1300510586778,16.3374
1300510646778,16.2557
1300510706778,16.2208
1300510766778,16.2849
1300510826790,16.2965
1300510886790,16.2606
1300510946790,16.3113
1300511006790,16.3072
1300511066790,16.2566
1300511126790,16.2432
1300511186790,16.2800
1300511246790,16.2917
1300511306790,16.3107
1300511366790,16.3491
1300511426790,16.2808
1300511486790,16.2638
1300511546790,16.2555
1300511606790,16.2671
1300511666790,16.2768
1300511726790,16.2932
1300511786790,16.3030
1300511846790,16.2996
1300511906790,16.2898
1300511966790,16.2813
1300512026790,16.2894
1300512086790,16.2592
1300512146790,16.2469
1300512206790,16.2574
1300512266790,16.2897
1300512326790,16.2819
1300512386790,16.2820
1300512446790,16.3018
1300512506790,16.2920
1300512566790,16.2312
1300512626790,16.2422
1300512686790,16.2328
1300512746790,16.2208
1300512806790,16.2045
1300512866790,16.2517
1300512926790,16.2237
1300512986790,16.2512
1300513046790,16.2722
1300513106790,16.2516
1300513166790,16.2536
1300513226790,16.2249
1300513286790,16.2369
1300513346790,16.2142
1300513406790,16.3465
1300513466790,16.2998
1300513526790,16.2429
1300513586790,16.2251
1300513646790,16.2562
1300513706790,16.2697
1300513766790,16.2459
1300513826790,16.2546
1300513886790,16.2365
1300513946790,16.2363
1300514006790,16.2655
1300514066790,16.2484
1300514126790,16.2322
1300514186790,16.4574
1300514246790,16.2426
1300514306790,16.2613
1300514366790,16.2471
1300514426803,16.2545
1300514486803,16.2266
1300514546803,16.2445
1300514606803,16.2520
1300514666803,16.2645
1300514726803,16.2825
1300514786803,16.2871
1300514846803,16.2681
1300514906803,16.2727
1300514966803,16.2582
1300515026803,16.2449
1300515086803,16.2621
1300515146803,16.2517
1300515206803,16.2501
1300515266803,16.2749
1300515326803,16.2245
1300515386803,16.2769
1300515446803,16.2072
1300515506803,16.2492
1300515566803,16.2016
1300515626803,16.2527
1300515686803,16.2551
1300515746803,16.2351
1300515806803,16.1846
1300528946846,16.3408
1300529006846,16.2931
1300529066846,16.3000
1300529126846,16.2967
1300529186846,16.2777
1300529246846,16.3155
1300529306846,16.2646
1300529366846,16.3156
1300529426846,16.3203
1300529486846,16.3024
1300529546846,16.2998
1300529606846,16.3038
1300529666846,16.2857
1300529726846,16.3097
1300529786846,16.3065
1300529846846,16.2969
1300529906846,16.2954
1300529966846,16.3132
1300530026846,16.2966
1300530086846,16.2942
1300530146846,16.3099
1300530206846,16.3377
1300530266846,16.3334
1300530326846,16.2741
1300530386846,16.3271
1300530446846,16.2808
1300530506846,16.2999
1300530566846,16.2724
1300530626846,16.2889
1300530686846,16.2711
1300530746846,16.2973
1300530806846,16.3157
1300530866846,16.3020
1300530926846,16.3062
1300530986846,16.3068
1300531046846,16.3176
1300531106846,16.3266
1300531166846,16.3245
1300531226846,16.2996
1300531286846,16.3510
1300531346846,16.3066
1300531406846,16.2969
1300531466846,16.3192
1300531526846,16.3549
1300531586846,16.2633
1300531646846,16.3031
1300531706846,16.3074
1300531766846,16.3295
1300531826846,16.2932
1300531886846,16.3188
1300531946846,16.3366
1300532006846,16.3245
1300532066846,16.3817
1300532126846,16.3224
1300532186846,16.3482
1300532246846,16.3264
1300532306846,16.3751
1300532366846,16.3489
1300532426858,16.3332
1300532486858,16.2937
1300532546858,16.3061
1300532606858,16.2926
1300532666858,16.3149
1300532726858,16.2907
1300532786858,16.3041
1300532846858,16.2577
1300532906858,16.3258
1300532966858,16.3270
1300533026858,16.3250
1300533086858,16.3287
1300533146858,16.3075
1300533206858,16.3181
1300533266858,16.3247
1300533326858,16.3268
1300533386858,16.3295
1300533446858,16.3511
1300533506858,16.2904
1300533566858,16.3090
1300533626858,16.3072
1300533686858,16.2853
1300533746858,16.3460
1300533806858,16.3093
1300533866858,16.3300
1300533926858,16.3307
1300533986858,16.3214
1300534046858,16.3452
1300534106858,16.3285
1300534166858,16.3374
1300534226858,16.3159
1300534286858,16.3302
1300534346858,16.3179
1300534406858,16.3523
1300534466858,16.3307
1300534526858,16.3120
1300534586858,16.3365
1300534646858,16.3099
1300534706858,16.3643
1300534766858,16.3524
1300534826858,16.3170
1300534886858,16.3410
1300534946858,16.3532
1300535006858,16.3203
1300535066858,16.3491
1300535126858,16.3687
1300535186858,16.3878
1300535246858,16.3156
1300535306858,16.3387
1300535366858,16.3815
1300535426858,16.3213
1300535486858,16.4017
1300535546858,16.3877
1300535606858,16.3268
1300535666858,16.3469
1300535726858,16.3576
1300535786858,16.3977
1300535846858,16.3851
1300535906858,16.4325
1300535966858,16.4125
1300536026871,16.4275
1300536086871,16.4243
1300536146871,16.4881
1300536206871,16.4768
1300536266871,16.4506
1300536326871,16.4299
1300536386871,16.4291
1300536446871,16.4138
1300536506871,16.4764
1300536566871,16.4923
1300536626871,16.4910
1300536686871,16.5172
1300536746871,16.6098
1300536806871,16.4853
1300536866871,16.5047
1300536926871,16.4793
1300536986871,16.5309
1300537046871,16.5108
1300537106871,16.5288
1300537166871,16.4919
1300537226871,16.5090
1300537286871,16.5040
1300537346871,16.5253
1300537406871,16.5222
1300537466871,16.5678
1300537526871,16.5819
1300537586871,16.5513
1300537646871,16.5672
1300537706871,16.5665
1300537766871,16.5806
1300537826871,16.5466
1300537886871,16.5471
1300537946871,16.5740
1300538006871,16.5743
1300538066871,16.5443
1300538126871,16.4878
1300538186871,16.4951
1300538246871,16.5370
1300538306871,16.6118
1300538366871,16.5751
1300538426871,16.5392
1300538486871,16.4681
1300538546871,16.4674
1300538606871,16.4807
1300538666871,16.4909
1300538726871,16.4886
1300538786871,16.4798
1300538846871,16.4894
1300538906871,16.5005
1300538966871,16.4608
1300539026871,16.4553
1300539086871,16.4240
1300539146871,16.4568
1300539206871,16.4606
1300539266871,16.4554
1300539326871,16.4258
1300539386871,16.4332
1300539446871,16.4636
1300539506871,16.4245
1300539566871,16.4107
1300539626883,16.4466
1300539686883,16.4676
1300539746883,16.4415
1300539806883,16.4406
1300539866883,16.4221
1300539926883,16.4540
1300539986883,16.4325
1300540046883,16.4577
1300540106883,16.4297
1300540166883,16.4042
1300540226883,16.4067
1300540286883,16.4586
1300540346883,16.4381
1300540406883,16.4824
1300540466883,16.4075
1300540526883,16.4113
1300540586883,16.3881
1300540646883,16.3772
1300540706883,16.4525
1300540766883,16.4205
1300540826883,16.4493
1300540886883,16.4209
1300540946883,16.4018
1300541006883,16.4248
1300541066883,16.4685
1300541126883,16.4367
1300541186883,16.4178
1300541246883,16.4234
1300541306883,16.4301
1300541366883,16.4017
1300541426883,16.3995
1300541486883,16.4299
1300541546883,16.3831
1300541606883,16.3920
1300541666883,16.4168
1300541726883,16.4594
1300541786883,16.4250
1300541846883,16.4147
1300541906883,16.4111
1300541966883,16.3728
1300542026883,16.4016
1300542086883,16.3519
1300542146883,16.3795
1300542206883,16.3736
1300542266883,16.3663
1300542326883,16.3040
1300542386883,16.3174
1300542446883,16.3171
1300542506883,16.3509
1300542566883,16.3177
1300542626883,16.3145
1300542686883,16.3349
1300542746883,16.3364
1300542806883,16.3878
1300542866883,16.3513
1300542926883,16.3506
1300542986883,16.3310
1300543046883,16.3570
1300543106883,16.3721
1300543166883,16.3589
1300543226895,16.3512
1300543286895,16.3603
1300543346895,16.3922
1300543406895,16.3349
1300543466895,16.3727
1300543526895,16.3321
1300543586895,16.3035
1300543646895,16.3592
1300543706895,16.3587
1300543766895,16.3588
1300543826895,16.3235
1300543886895,16.3645
1300543946895,16.3454
1300544006895,16.4009
1300544066895,16.3299
1300544126895,16.3312
1300544186895,16.3735
1300544246895,16.3860
1300544306895,16.3759
1300544366895,16.3465
1300544426895,16.3966
1300544486895,16.3864
1300544546895,16.3690
1300544606895,16.4108
1300544666895,16.3832
1300544726895,16.3798
1300544786895,16.3451
1300544846895,16.4162
1300544906895,16.4025
1300544966895,16.4232
1300545026895,16.4072
1300545086895,16.4241
1300545146895,16.3947
1300545206895,16.3574
1300545266895,16.3596
1300545326895,16.3837
1300545386895,16.3772
1300545446895,16.3672
1300545506895,16.3588
1300545566895,16.3620
1300545626895,16.3840
1300545686895,16.3765
1300545746895,16.3408
1300545806895,16.3487
1300545866895,16.3451
1300545926895,16.3526
1300545986895,16.3404
1300546046895,16.3439
1300546106895,16.3553
1300546166895,16.3308
1300546226895,16.3961
1300546286895,16.3727
1300546346895,16.4001
1300546406895,16.3433
1300546466895,16.3342
1300546526895,16.3202
1300546586895,16.3341
1300546646895,16.3899
1300546706895,16.3529
1300546766895,16.3673
1300546826907,16.3726
1300546886907,16.3393
1300546946907,16.3653
1300547006907,16.2907
1300547066907,16.3255
1300547126907,16.3350
1300547186907,16.3643
1300547246907,16.3395
1300547306907,16.3420
1300547366907,16.3448
1300547426907,16.3377
1300547486907,16.3780
1300547546907,16.3788
1300547606907,16.3636
1300547666907,16.3773
1300547726907,16.3542
1300547786907,16.3649
1300547846907,16.4131
1300547906907,16.4066
1300547966907,16.4204
1300548026907,16.4144
1300548086907,16.3218
1300548146907,16.4005
1300548206907,16.3967
1300548266907,16.3530
1300548326907,16.4061
1300548386907,16.3971
1300548446907,16.4298
1300548506907,16.4184
1300548566907,16.3931
1300548626907,16.4099
1300548686907,16.4614
1300548746907,16.4580
1300548806907,16.4515
1300548866907,16.3941
1300548926907,16.4378
1300548986907,16.4450
1300549046907,16.4317
1300549106907,16.4668
1300549166907,16.4274
1300549226907,16.4461
1300549286907,16.4211
1300549346907,16.4221
1300549406907,16.4303
1300549466907,16.3857
1300549526907,16.4048
1300549586907,16.4064
1300549646907,16.4007
1300549706907,16.3409
1300549766907,16.4299
1300549826907,16.3937
1300549886907,16.4446
1300549946907,16.4244
1300550006907,16.4213
1300550066907,16.4237
1300550126907,16.4240
1300550186907,16.4258
1300550246907,16.3852
1300550306907,16.4287
1300550366907,16.4050
1300550426919,16.3640
1300550486919,16.3941
1300550546919,16.4323
1300550606919,16.4024
1300550666919,16.4186
1300550726919,16.3988
1300550786919,16.4266
1300550846919,16.4108
1300550906919,16.4199
1300550966919,16.4063
1300551026919,16.4512
1300551086919,16.4187
1300551146919,16.3632
1300551206919,16.4218
1300551266919,16.4150
1300551326919,16.4042
1300551386919,16.3922
1300551446919,16.3964
1300551506919,16.4014
1300551566919,16.3295
1300551626919,16.3901
1300551686919,16.3763
1300551746919,16.3660
1300551806919,16.4136
1300551866919,16.3756
1300551926919,16.4347
1300551986919,16.3870
1300552046919,16.4310
1300552106919,16.4254
1300552166919,16.3607
1300552226919,16.3956
1300552286919,16.3977
1300552346919,16.3902
1300552406919,16.3951
1300552466919,16.3992
1300552526919,16.4271
1300552586919,16.4309
1300552646919,16.4405
1300552706919,16.4238
1300552766919,16.4382
1300552826919,16.4330
1300552886919,16.4766
1300552946919,16.4340
1300553006919,16.4286
1300553066919,16.4207
1300553126919,16.4651
1300553186919,16.4650
1300553246919,16.4736
1300553306919,16.4858
1300553366919,16.4139
1300553426919,16.4538
1300553486919,16.4412
1300553546919,16.4037
1300553606919,16.4497
1300553666919,16.4795
1300553726919,16.4617
1300553786919,16.4747
1300553846919,16.4636
1300553906919,16.4874
1300553966919,16.4456
1300554026931,16.4641
1300554086931,16.4543
1300554146931,16.4652
1300554206931,16.4930
1300554266931,16.4566
1300554326931,16.4187
1300554386931,16.4161
1300554446931,16.4181
1300554506931,16.4056
1300554566931,16.3739
1300554626931,16.3930
1300554686931,16.3758
1300554746931,16.3613
1300554806931,16.3578
1300554866931,16.3352
1300554926931,16.4137
1300554986931,16.3937
1300555046931,16.4068
1300555106931,16.4195
1300555166931,16.3904
1300555226931,16.3624
1300555286931,16.3735
1300555346931,16.3600
1300555406931,16.4073
1300555466931,16.3572
1300555526931,16.3474
1300555586931,16.3162
1300555646931,16.3241
1300555706931,16.3045
1300555766931,16.3392
1300555826931,16.2952
1300555886931,16.3139
1300555946931,16.3256
1300556006931,16.3436
1300556066931,16.3053
1300556126931,16.2931
1300556186931,16.3121
1300556246931,16.3066
1300556306931,16.2943
1300556366931,16.3509
1300556426931,16.3326
1300556486931,16.2723
1300556546931,16.2810
1300556606931,16.2871
1300556666931,16.3126
1300556726931,16.3325
1300556786931,16.2951
1300556846931,16.3174
1300556906931,16.3174
1300556966931,16.2904
1300557026931,16.3142
1300557086931,16.3139
1300557146931,16.3757
1300557206931,16.3220
1300557266931,16.3185
1300557326931,16.3493
1300557386931,16.3334
1300557446931,16.3622
1300557506931,16.3847
1300557566931,16.3949
1300557626943,16.4160
1300557686943,16.3997
1300557746943,16.3871
1300557806943,16.3860
1300557866943,16.3490
1300557926943,16.3752
1300557986943,16.3996
1300558046943,16.3454
1300558106943,16.3484
1300558166943,16.3204
1300558226943,16.3354
1300558286943,16.3123
1300558346943,16.3153
1300558406943,16.3102
1300558466943,16.3397
1300558526943,16.2864
1300558586943,16.2865
1300558646943,16.2717
1300558706943,16.3285
1300558766943,16.2986
1300558826943,16.3237
1300558886943,16.2972
1300558946943,16.3441
1300559006943,16.2965
1300559066943,16.2969
1300559126943,16.3386
1300559186943,16.3510
1300559246943,16.3166
1300559306943,16.3149
1300559366943,16.3302
1300559426943,16.3793
1300559486943,16.2974
1300559546943,16.3622
1300559606943,16.3107
1300559666943,16.3513
1300559726943,16.3795
1300559786943,16.3484
1300559846943,16.3642
1300559906943,16.3352
1300559966943,16.3498
1300560026943,16.3334
1300560086943,16.3225
1300560146943,16.2851
1300560206943,16.3078
1300560266943,16.3390
1300560326943,16.3155
1300560386943,16.3372
1300560446943,16.3161
1300560506943,16.3220
1300560566943,16.3152
1300560626943,16.3058
1300560686943,16.2874
1300560746943,16.3145
1300560806943,16.3370
1300560866943,16.3258
1300560926943,16.3149
1300560986943,16.3717
1300561046943,16.3594
1300561106943,16.3353
1300561166943,16.3527
1300561226955,16.3625
1300561286955,16.3649
1300561346955,16.3647
1300561406955,16.3595
1300561466955,16.3452
1300561526955,16.3402
1300561586955,16.3465
1300561646955,16.3365
1300561706955,16.3031
1300561766955,16.3235
1300561826955,16.3105
1300561886955,16.2777
1300561946955,16.3041
1300562006955,16.3629
1300562066955,16.3695
1300562126955,16.3244
1300562186955,16.3402
1300562246955,16.2690
1300562306955,16.3284
1300562366955,16.3656
1300562426955,16.3223
1300562486955,16.3275
1300562546955,16.2886
1300562606955,16.3345
1300562666955,16.3468
1300562726955,16.3399
1300562786955,16.3453
1300562846955,16.3438
1300562906955,16.3327
1300562966955,16.2946
1300563026955,16.2782
1300563086955,16.2670
1300563146955,16.2521
1300563206955,16.2735
1300563266955,16.2814
1300563326955,16.3272
1300563386955,16.2769
1300563446955,16.2574
1300563506955,16.2547
1300563566955,16.1944
1300563626955,16.2448
1300563686955,16.2750
1300563746955,16.1907
1300563806955,16.2667
1300563866955,16.2535
1300563926955,16.2324
1300563986955,16.2210
1300564046955,16.2626
1300564106955,16.2926
1300564166955,16.3083
1300564226955,16.2427
1300564286955,16.2529
1300564346955,16.2360
1300564406955,16.2972
1300564466955,16.2982
1300564526955,16.2831
1300564586955,16.2846
1300564646955,16.2912
1300564706955,16.2787
1300564766955,16.2240
1300564826967,16.2832
1300564886967,16.3091
1300564946967,16.3083
1300565006967,16.3047
1300565066967,16.3050
1300565126967,16.2860
1300565186967,16.2800
1300565246967,16.3399
1300565306967,16.3125
1300565366967,16.2886
1300565426967,16.3218
1300565486967,16.3338
1300565546967,16.3106
1300565606967,16.3050
1300565666967,16.3416
1300565726967,16.4662
1300565786967,16.3811
1300565846967,16.3723
1300565906967,16.3685
1300565966967,16.3890
1300566026967,16.3529
1300566086967,16.3257
1300566146967,16.3635
1300566206967,16.3666
1300566266967,16.3454
1300566326967,16.3033
1300566386967,16.3693
1300566446967,16.3153
1300566506967,16.3425
1300566566967,16.3150
1300566626967,16.3295
1300566686967,16.2922
1300566746967,16.3323
1300566806967,16.3843
1300566866967,16.4154
1300566926967,16.3632
1300566986967,16.3159
1300567046967,16.3408
1300567106967,16.2638
1300567166967,16.3508
1300567226967,16.3262
1300567286967,16.3682
1300567346967,16.3342
1300567406967,16.4215
1300567466967,16.4154
1300567526967,16.3643
1300567586967,16.3228
1300567646967,16.3002
1300567706967,16.3485
1300567766967,16.3342
1300567826967,16.3337
1300567886967,16.4154
1300567946967,16.2923
1300568006967,16.3361
1300568066967,16.3295
1300568126967,16.3188
1300568186967,16.3491
1300568246967,16.2860
1300568306967,16.3444
1300568366967,16.3082
1300568426979,16.3256
1300568486979,16.3231
1300568546979,16.3031
1300568606979,16.3206
1300568666979,16.3039
1300568726979,16.3733
1300568786979,16.3824
1300568846979,16.3370
1300568906979,16.3817
1300568966979,16.3426
1300569026979,16.3821
1300569086979,16.3063
1300569146979,16.3359
1300569206979,16.3193
1300569266979,16.3153
1300569326979,16.3589
1300569386979,16.3086
1300569446979,16.3312
1300569506979,16.3103
1300569566979,16.3451
1300569626979,16.3322
1300569686979,16.3339
1300569746979,16.3424
1300569806979,16.3397
1300569866979,16.2968
1300569926979,16.3134
1300569986979,16.3207
1300570046979,16.3296
1300570106979,16.3031
1300570166979,16.3002
1300570226979,16.2860
1300570286979,16.3241
1300570346979,16.3398
1300570406979,16.3367
1300570466979,16.3323
1300570526979,16.3512
1300570586979,16.3661
1300570646979,16.3846
1300570706979,16.3369
1300570766979,16.3656
1300570826979,16.3426
1300570886979,16.3623
1300570946979,16.4165
1300571006979,16.3841
1300571066979,16.3383
1300571126979,16.3291
1300571186979,16.3177
1300571246979,16.3062